THY1KD LOWW-LTFM

Flight info

Callsign THY1KD
Flight time N/A
Altitude 39000
Route ADAMA Z648 VEDER L140 ALAMU DCT EPARI DCT TEGRI DCT SODGO DCT NULGO DCT TIMUR DCT XANEX L606 GASRU DCT RILEX
Aircraft B77W/H-SDE1E2E3FGHIJ2J3J4J5M1RWXY/LB1D1

Departure

Time 2026-05-01 14:53
Airport Vienna International Airport (LOWW)

Arrival

Time N/A
Airport İstanbul Airport (LTFM)
Time Latitude Longitude Altitude Speed Heading
2026-05-01 14:21 48.11759 16.56115 629 ft 0 kts 27°
2026-05-01 14:41 48.11750 16.56109 615 ft 4 kts 25°
2026-05-01 14:41 48.11726 16.56094 630 ft 4 kts 23°
2026-05-01 14:42 48.11713 16.56083 630 ft 2 kts 59°
2026-05-01 14:42 48.11704 16.56054 630 ft 4 kts 89°
2026-05-01 14:42 48.11709 16.56022 630 ft 4 kts 117°
2026-05-01 14:42 48.11718 16.55995 630 ft 0 kts 116°
2026-05-01 14:48 48.11692 16.56076 630 ft 9 kts 116°
2026-05-01 14:48 48.11665 16.56157 626 ft 8 kts 116°
2026-05-01 14:48 48.11577 16.56184 627 ft 8 kts 164°
2026-05-01 14:49 48.11518 16.56327 627 ft 9 kts 115°
2026-05-01 14:49 48.11451 16.56532 630 ft 17 kts 116°
2026-05-01 14:50 48.11360 16.56811 623 ft 18 kts 116°
2026-05-01 14:50 48.11232 16.57204 626 ft 18 kts 116°
2026-05-01 14:51 48.11177 16.57373 627 ft 18 kts 116°
2026-05-01 14:51 48.11094 16.57626 626 ft 8 kts 121°
2026-05-01 14:52 48.10991 16.57609 625 ft 9 kts 206°
2026-05-01 14:52 48.10936 16.57568 626 ft 8 kts 207°
2026-05-01 14:52 48.10954 16.57414 622 ft 25 kts 296°
2026-05-01 14:53 48.11141 16.56838 627 ft 103 kts 296°
2026-05-01 14:53 48.11566 16.55522 655 ft 168 kts 298°
2026-05-01 14:53 48.12066 16.53945 1475 ft 168 kts 298°
2026-05-01 14:53 48.12509 16.52311 2354 ft 175 kts 279°
2026-05-01 14:54 48.12236 16.50440 2761 ft 206 kts 237°
2026-05-01 14:54 48.11024 16.49155 3218 ft 229 kts 196°
2026-05-01 14:54 48.09387 16.48913 3694 ft 246 kts 181°
2026-05-01 14:54 48.07645 16.48794 4503 ft 254 kts 184°
2026-05-01 14:55 48.05833 16.48738 5140 ft 268 kts 172°
2026-05-01 14:55 48.04019 16.49704 5640 ft 285 kts 146°
2026-05-01 14:55 48.02405 16.51418 6571 ft 286 kts 142°
2026-05-01 14:55 48.00741 16.53107 7469 ft 291 kts 144°
2026-05-01 14:56 47.99053 16.54686 8481 ft 290 kts 144°
2026-05-01 14:56 47.97393 16.56346 9397 ft 284 kts 131°
2026-05-01 14:56 47.96335 16.58751 10223 ft 276 kts 103°
2026-05-01 14:56 47.96105 16.61616 10661 ft 288 kts 81°
2026-05-01 14:57 47.96616 16.64599 10853 ft 309 kts 68°
2026-05-01 14:57 47.98161 16.71079 11823 ft 346 kts 68°
2026-05-01 14:57 47.98958 16.74502 12832 ft 352 kts 68°
2026-05-01 14:58 47.99705 16.78000 13963 ft 357 kts 74°
2026-05-01 14:58 48.00031 16.81725 14936 ft 366 kts 83°
2026-05-01 14:58 48.00185 16.85540 15907 ft 371 kts 83°
2026-05-01 14:58 48.00351 16.89403 16864 ft 376 kts 82°
2026-05-01 14:59 48.00547 16.93312 17805 ft 381 kts 82°
2026-05-01 14:59 48.00765 16.97293 18722 ft 386 kts 82°
2026-05-01 14:59 48.00991 17.01309 19566 ft 391 kts 82°
2026-05-01 14:59 48.01121 17.05379 20432 ft 395 kts 88°
2026-05-01 15:00 48.00512 17.13663 22098 ft 406 kts 94°
2026-05-01 15:00 48.00108 17.17861 22906 ft 410 kts 93°
2026-05-01 15:00 47.99733 17.22100 23699 ft 414 kts 92°
2026-05-01 15:01 47.99391 17.26378 24377 ft 417 kts 92°
2026-05-01 15:01 47.99058 17.30713 24995 ft 422 kts 92°
2026-05-01 15:01 47.98675 17.35061 25597 ft 427 kts 96°
2026-05-01 15:01 47.97883 17.39394 26136 ft 437 kts 103°
2026-05-01 15:02 47.96893 17.43712 26711 ft 442 kts 104°
2026-05-01 15:02 47.96208 17.46589 27093 ft 445 kts 104°
2026-05-01 15:02 47.94828 17.52438 27841 ft 449 kts 103°
2026-05-01 15:02 47.93813 17.56858 28390 ft 452 kts 103°
2026-05-01 15:03 47.92809 17.61318 28873 ft 456 kts 102°
2026-05-01 15:03 47.91808 17.65819 29351 ft 459 kts 102°
2026-05-01 15:03 47.90803 17.70355 29810 ft 462 kts 102°
2026-05-01 15:03 47.89790 17.74917 30237 ft 465 kts 102°
2026-05-01 15:04 47.88772 17.79493 30658 ft 466 kts 102°
2026-05-01 15:04 47.87748 17.84071 31148 ft 465 kts 102°
2026-05-01 15:04 47.86728 17.88627 31655 ft 463 kts 102°
2026-05-01 15:04 47.85705 17.93185 32123 ft 463 kts 102°
2026-05-01 15:05 47.84666 17.97717 32576 ft 464 kts 103°
2026-05-01 15:05 47.83411 18.02163 32999 ft 468 kts 108°
2026-05-01 15:05 47.82027 18.06546 33438 ft 469 kts 108°
2026-05-01 15:05 47.80645 18.10880 33863 ft 468 kts 108°
2026-05-01 15:06 47.79259 18.15258 34291 ft 468 kts 108°
2026-05-01 15:06 47.77886 18.19635 34642 ft 467 kts 108°
2026-05-01 15:06 47.76517 18.24014 34980 ft 467 kts 108°
2026-05-01 15:06 47.75184 18.28455 35319 ft 463 kts 104°
2026-05-01 15:07 47.74177 18.32917 35625 ft 458 kts 99°
2026-05-01 15:07 47.73412 18.37485 35959 ft 454 kts 95°
2026-05-01 15:07 47.72922 18.42084 36277 ft 449 kts 90°
2026-05-01 15:07 47.72576 18.46683 36584 ft 449 kts 90°
2026-05-01 15:08 47.72244 18.51309 36879 ft 449 kts 90°
2026-05-01 15:08 47.71910 18.55924 37197 ft 449 kts 90°
2026-05-01 15:08 47.71567 18.60521 37471 ft 450 kts 90°
2026-05-01 15:08 47.71212 18.65136 37738 ft 450 kts 90°
2026-05-01 15:09 47.70849 18.69769 38030 ft 450 kts 91°
2026-05-01 15:09 47.70483 18.74380 38311 ft 450 kts 91°
2026-05-01 15:09 47.70115 18.79002 38574 ft 451 kts 91°
2026-05-01 15:09 47.69747 18.83618 38842 ft 450 kts 91°
2026-05-01 15:10 47.69374 18.88237 39029 ft 451 kts 91°
2026-05-01 15:10 47.67754 18.97340 39214 ft 470 kts 109°
2026-05-01 15:10 47.66116 19.01585 39259 ft 479 kts 119°
2026-05-01 15:11 47.59247 19.12614 39296 ft 486 kts 129°
2026-05-01 15:12 47.54496 19.19715 39295 ft 484 kts 128°
2026-05-01 15:12 47.47478 19.30420 39306 ft 483 kts 128°
2026-05-01 15:14 47.35825 19.48306 39299 ft 485 kts 128°
2026-05-01 15:14 47.28770 19.59060 39307 ft 487 kts 128°
2026-05-01 15:15 47.19355 19.73342 39310 ft 489 kts 128°
2026-05-01 15:16 47.09863 19.87662 39305 ft 489 kts 128°
2026-05-01 15:18 46.97975 20.05489 39296 ft 488 kts 128°
2026-05-01 15:19 46.88471 20.19655 39296 ft 487 kts 129°
2026-05-01 15:19 46.81348 20.30223 39301 ft 487 kts 129°
2026-05-01 15:20 46.74212 20.40766 39302 ft 486 kts 129°
2026-05-01 15:21 46.69455 20.47772 39314 ft 486 kts 129°
2026-05-01 15:21 46.65498 20.53586 39294 ft 486 kts 129°
2026-05-01 15:22 46.58341 20.64068 39295 ft 487 kts 129°
2026-05-01 15:22 46.53560 20.71048 39293 ft 487 kts 129°
2026-05-01 15:23 46.48774 20.78016 39295 ft 488 kts 130°
2026-05-01 15:23 46.43967 20.84996 39293 ft 489 kts 130°
2026-05-01 15:24 46.39155 20.91965 39295 ft 489 kts 130°
2026-05-01 15:24 46.34331 20.98934 39296 ft 490 kts 130°
2026-05-01 15:25 46.29530 21.05854 39291 ft 491 kts 130°
2026-05-01 15:25 46.24632 21.12745 39293 ft 493 kts 133°
2026-05-01 15:26 46.19508 21.19367 39296 ft 495 kts 134°
2026-05-01 15:26 46.14337 21.25939 39296 ft 496 kts 134°
2026-05-01 15:27 46.09172 21.32526 39299 ft 496 kts 134°
2026-05-01 15:28 46.01417 21.42440 39291 ft 498 kts 134°
2026-05-01 15:28 45.96231 21.49053 39273 ft 498 kts 134°
2026-05-01 15:29 45.88440 21.58953 39273 ft 499 kts 135°
2026-05-01 15:30 45.78039 21.72107 39271 ft 498 kts 135°
2026-05-01 15:31 45.62429 21.91723 39276 ft 497 kts 135°
2026-05-01 15:32 45.52018 22.04721 39272 ft 497 kts 136°
2026-05-01 15:34 45.36396 22.24103 39269 ft 498 kts 136°